Tracking 35280 objects as of 7-Sep-2026
HD Live streaming from Space Station
objects crossing your sky now

STARLINK-5283

Track STARLINK-5283 now!
10-day predictions
STARLINK-5283 is classified as:


NORAD ID: 55396
Int'l Code: 2023-014F
Launch date: January 31, 2023
Source: United States (US)
Launch site: AIR FORCE WESTERN TEST RANGE (AFWTR)
Your satellite tracking list
Your tracking list is empty




NASA's NSSDC Master Catalog

Two Line Element Set (TLE):
1 55396U 23014F   26249.64123158  .00000237  00000-0  27632-4 0  9997
2 55396  69.9991 328.0795 0003294 270.1360  89.9422 14.98331985199165
Source of the keplerian elements: AFSPC